Flag for Denmark Weather past 2 weeks in Esbjerg, Denmark

Now
45 °F

Drizzle. Fog.


Feels Like: 37 °F
Forecast: 47 / 49 °F
Wind: 20 mph from Southwest

Location: Esbjerg Airport

Current Time: Dec 21, 2014 at 7:12:37 PM

Latest Report: Dec 21, 2014 at 6:50 PM


Visibility: 3 mi

Pressure: 29.77 "Hg

Humidity: 100%

Dew point: 45 °F

Location of EsbjergLocation

Historic Weather in Esbjerg — Graph

°F

Esbjerg temperature yesterday

Maximum temperature yesterday: 45 °F (at 3:20 AM)
Minimum temperature yesterday: 37 °F (at 12:20 PM)
Average temperature yesterday: 42 °F

Past Weeks' High & Low Weather Summary

 TemperatureHumidityPressure
High50 °F (Dec 18, 5:20 PM)100% (Dec 7, 9:50 AM)30.18 "Hg (Dec 7, 9:50 AM)
Low34 °F (Dec 8, 8:50 PM)66% (Dec 10, 12:50 PM)28.91 "Hg (Dec 12, 2:20 PM)
Average41 °F87%29.63 "Hg
* Reported Dec 6 5:20 PM — Dec 21 5:50 PM, Esbjerg, Weather by CustomWeather, © 2014

Note: Actual official high and low records may vary slightly from our data, if they occured in-between our weather recording intervals... More about our weather records

Advertising

Esbjerg weather history for previous 24 hours

 ConditionsComfort  
Time TempWeatherWind HumidityBarometerVisibility
5:50 PM
Dec 21
45 °FPassing clouds.20 mph93%29.80 "Hg4 mi
5:20 PM45 °FDrizzle. Overcast.22 mph93%29.83 "Hg4 mi
4:50 PM45 °FOvercast.21 mph93%29.83 "Hg6 mi
4:20 PM45 °FPassing clouds.18 mph93%29.83 "HgN/A
3:50 PM45 °FPartly sunny.20 mph93%29.86 "HgN/A
3:20 PM45 °FPartly sunny.20 mph93%29.86 "Hg5 mi
2:50 PM45 °FLow clouds.21 mph93%29.89 "HgN/A
2:20 PM45 °FSprinkles. Partly sunny.20 mph93%29.89 "Hg6 mi
1:50 PM45 °FSprinkles. Partly sunny.15 mph93%29.92 "HgN/A
1:20 PM46 °FSprinkles. Partly sunny.17 mph87%29.92 "HgN/A
12:50 PM46 °FLight rain. Partly sunny.15 mph87%29.95 "HgN/A
12:20 PM46 °FPartly sunny.16 mph87%29.98 "HgN/A
11:50 AM45 °FBroken clouds.18 mph87%29.98 "HgN/A
11:20 AM45 °FPartly sunny.16 mph87%29.98 "HgN/A
10:50 AM45 °FOvercast.15 mph81%30.01 "HgN/A
10:20 AM45 °FPartly sunny.14 mph81%30.01 "HgN/A
9:50 AM43 °FBroken clouds.13 mph87%30.04 "HgN/A
9:20 AM43 °FScattered clouds.13 mph87%30.04 "HgN/A
8:50 AM43 °FPassing clouds.10 mph87%30.04 "HgN/A
8:20 AM41 °FPassing clouds.9 mph87%30.04 "HgN/A
7:50 AM43 °FPartly cloudy.12 mph81%30.04 "HgN/A
7:20 AM41 °FPartly cloudy.10 mph81%30.07 "HgN/A
6:50 AM41 °FPassing clouds.8 mph81%30.07 "HgN/A
6:20 AM43 °FPassing clouds.12 mph76%30.07 "HgN/A
5:50 AM43 °FPassing clouds.12 mph81%30.07 "HgN/A
5:20 AM43 °FPassing clouds.10 mph81%30.07 "HgN/A
4:50 AM43 °FPassing clouds.15 mph81%30.04 "HgN/A
4:20 AM43 °FPassing clouds.10 mph81%30.04 "HgN/A
3:50 AM43 °FPassing clouds.14 mph81%30.04 "HgN/A
3:20 AM43 °FPassing clouds.12 mph81%30.04 "HgN/A
2:50 AM43 °FPassing clouds.13 mph81%30.04 "HgN/A
2:20 AM43 °FPassing clouds.15 mph76%30.04 "HgN/A
1:20 AM43 °FQuite cool.16 mph76%30.01 "HgN/A
12:50 AM43 °FQuite cool.16 mph76%29.98 "HgN/A
12:20 AM43 °FPassing clouds.16 mph76%29.95 "HgN/A
11:50 PM
Dec 20
43 °FPassing clouds.18 mph76%29.95 "HgN/A
11:20 PM43 °FPassing clouds.17 mph76%29.92 "HgN/A
10:50 PM43 °FQuite cool.17 mph76%29.89 "HgN/A
10:20 PM43 °FQuite cool.18 mph81%29.86 "HgN/A
9:50 PM43 °FPassing clouds.18 mph81%29.83 "HgN/A
9:20 PM41 °FPassing clouds.17 mph87%29.83 "HgN/A
8:50 PM41 °FSprinkles. Passing clouds.15 mph87%29.80 "HgN/A
8:20 PM41 °FPassing clouds.18 mph81%29.80 "HgN/A
7:50 PM39 °FPartly cloudy.20 mph87%29.77 "HgN/A
7:20 PM41 °FPassing clouds.18 mph81%29.74 "HgN/A
Weather by CustomWeather, © 2014

See weather overviewHow to use our weather pages